Santa Monica, CA

3:28 PM PST on November 20, 2019 (GMT -0800)
Santa Monica Municipal

Weather History for KSMO - October, 2019

Change the Weather History Date:

Monday, October 21, 2019

  Actual Average Record
Temperature  
Mean Temperature 76 °F -  
Max Temperature 87 °F 74 °F 101 °F (1965)
Min Temperature 66 °F 58 °F 41 °F (1949)
Cooling Degree Days 11    
Growing Degree Days 26 (Base 50)    
Moisture  
Dew Point 44 °F    
Average Humidity 35    
Maximum Humidity 70    
Minimum Humidity 20    
Precipitation  
Precipitation 0.00 in - - ()
Sea Level Pressure  
Sea Level Pressure 29.98 in    
Wind  
Wind Speed 5 mph (North)    
Max Wind Speed 10 mph    
Max Gust Speed -    
Visibility 10 miles    
Events      
Averages and records for this station are not official NWS values.
T = Trace of Precipitation, MM = Missing Value Source: NWS Daily Summary

Daily Weather History Graph

Daily Weather History Graph

Search for Another Location

Airport or City:

Astronomy

Oct. 21, 2019 Rise Set
Actual Time 7:03 AM PDT 6:12 PM PDT
Civil Twilight 6:38 AM PDT 6:38 PM PDT
Nautical Twilight 6:09 AM PDT 7:07 PM PDT
Astronomical Twilight 5:40 AM PDT 7:36 PM PDT
Moon No Moon Rise 2:16 PM PDT (10/21)
Length of Visible Light 11h 59m
Length of Day
11h 08m
Waning Gibbous, 47% of the Moon is Illuminated
Oct 21
Waning Gibbous
Oct 27
New
Nov 4
First Quarter
Nov 12
Full
Nov 19
Last Quarter

Hourly Weather History & Observations

Time (PDT) Temp. Dew Point Humidity Pressure Visibility Wind Dir Wind Speed Gust Speed Precip Events Conditions
12:51 AM 75.0 °F 37.9 °F 26% 29.92 in 10.0 mi NNE 5.8 mph - N/A   Clear
1:51 AM 69.1 °F 41.0 °F 36% 29.93 in 10.0 mi East 6.9 mph - N/A   Clear
2:51 AM 70.0 °F 39.9 °F 33% 29.93 in 10.0 mi Variable 3.5 mph - N/A   Clear
3:51 AM 69.1 °F 39.0 °F 33% 29.92 in 10.0 mi ENE 3.5 mph - N/A   Clear
4:51 AM 70.0 °F 39.0 °F 32% 29.92 in 10.0 mi NNE 6.9 mph - N/A   Clear
5:51 AM 72.0 °F 39.9 °F 31% 29.94 in 10.0 mi NNE 5.8 mph - N/A   Clear
6:51 AM 69.1 °F 41.0 °F 36% 29.96 in 10.0 mi ENE 4.6 mph - N/A   Clear
7:51 AM 71.1 °F 42.1 °F 35% 29.98 in 10.0 mi North 3.5 mph - N/A   Clear
8:51 AM 78.1 °F 41.0 °F 27% 30.00 in 10.0 mi North 3.5 mph - N/A   Clear
9:51 AM 84.0 °F 42.1 °F 23% 30.01 in 10.0 mi Calm Calm - N/A   Clear
10:51 AM 86.0 °F 41.0 °F 20% 30.01 in 10.0 mi SE 3.5 mph - N/A   Clear
11:51 AM 84.9 °F 45.0 °F 25% 30.01 in 10.0 mi SSW 6.9 mph - N/A   Clear
12:51 PM 84.9 °F 42.1 °F 22% 30.00 in 10.0 mi WSW 5.8 mph - N/A   Clear
1:51 PM 86.0 °F 39.9 °F 20% 29.98 in 10.0 mi WSW 6.9 mph - N/A   Clear
2:51 PM 86.0 °F 39.9 °F 20% 29.96 in 10.0 mi WSW 8.1 mph - N/A   Clear
3:51 PM 84.0 °F 39.0 °F 20% 29.97 in 10.0 mi WSW 8.1 mph - N/A   Clear
4:51 PM 82.0 °F 42.1 °F 24% 29.97 in 10.0 mi WSW 10.4 mph - N/A   Clear
5:51 PM 81.0 °F 41.0 °F 24% 29.97 in 10.0 mi West 5.8 mph - N/A   Clear
6:51 PM 75.9 °F 48.9 °F 38% 29.99 in 10.0 mi South 4.6 mph - N/A   Clear
7:51 PM 71.1 °F 57.0 °F 61% 30.01 in 10.0 mi South 3.5 mph - N/A   Clear
8:51 PM 69.1 °F 57.9 °F 68% 30.01 in 10.0 mi Calm Calm - N/A   Clear
9:51 PM 66.9 °F 57.0 °F 70% 30.03 in 10.0 mi East 3.5 mph - N/A   Clear
10:51 PM 68.0 °F 54.0 °F 61% 30.05 in 10.0 mi NNE 3.5 mph - N/A   Clear
11:51 PM 66.9 °F 50.0 °F 54% 30.04 in 10.0 mi NNE 3.5 mph - N/A   Clear